EHI
0 0 0 0 0 0 0 0 0 0 0 0 0 0 0 0 0 0 0 0 0 0 0 0 0 0 0 0 0 0 0 0 0 0 0 0 0 0 0 0 0 0 0
0 0 0 0 0 0 0 0 0 0 0 0 0 0 0 0 0 0 0 0 0 0 0 0 0 0 0 0 0 0 0 0 0 0 0 0 0 0 0 0 0 0 0
0 0 0 0 0 0 0 0 0 0 0 0 0 0 0 0 0 0 0 0 0 0 0 0 0 0 0 0 0 0 0 0 0 0 0 0 0 0 0 0 0 0 0
0 0 0 0 0 0 0 0 0 0 0 0 0 0 0 0 0 0 0 0 0 0 0 0 0 0 0 0 0 0 0 0 0 0 0 0 0 0 0 0 0 0 0
0 0 0 0 0 0 0 0 0 0 0 0 0 0 0 0 0 0 0 0 0 0 0 0 0 0 0 0 0 0 0 0 0 0 0 0 0 0 0 0 0 0 0
0 0 0 0 0 0 0 0 0 0 0 0 0 0 0 0 0 0 0 0 0 0 0 0 0 0 0 0 0 0 0 0 0 0 0 0 0 0 0 0 0 0 0
0 0 0 0 0 0 0 0 0 0 0 0 0 0 0 0 0 0 0 0 0 0 0 0 0 0 0 0 0 0 0 0 0 0 0 0 0 0 0 0 0 0 0
0 0 0 0 0 0 0 0 0 0 0 0 0 0 0 0 0 0 0 0 0 0 0 0 0 0 0 0 0 0 0 0 0 0 0 0 0 0 0 0 0 0 0
0 0 0 0 0 0 0 0 0 0 0 0 0 0 0 0 0 0 0 0 0 0 0 0 0 0 0 0 0 0 0 0 0 0 0 0 0 0 0 0 0 0 0
0 0 0 0 0 0 0 0 0 0 0 0 0 0 0 0 0 0 0 0 0 0 0 0 0 0 0 0 0 0 0 0 0 0 0 0 0 0 0 0 0 0 0
0 0 0 0 0 0 0 0 0 0 0 0 0 0 0 0 0 0 0 0 0 0 0 0 0 0 0 0 0 0 0 0 0 0 0 0 0 0 0 0 0 0 0
0 0 0 0 0 0 0 0 0 0 0 0 0 0 0 0 0 0 0 0 0 0 0 0 0 0 0 0 0 0 0 0 0 0 0 0 0 0 0 0 0 0 0
0 0 0 0 0 0 0 0 0 0 0 0 0 0 0 0 0 0 0 0 0 0 0 0 0 0 0 0 0 0 0 0 0 0 0 0 0 0 0 0 0 0 0
0 0 0 0 0 0 0 0 0 0 0 0 0 0 0 0 0 0 0 0 0 0 0 0 0 0 0 0 0 0 0 0 0 0 0 0 0 0 0 0 0 0 0
0 0 0 0 0 0 0 0 0 0 0 0 0 0 0 0 0 0 0 0 0 0 0 0 0 0 0 0 0 0 0 0 0 0 0 0 0 0 0 0 0 0 0
0 0 0 0 0 0 0 0 0 0 0 0 0 0 0 0 0 0 0 0 0 0 0 0 0 0 0 0 0 0 0 0 0 0 0 0 0 0 0 0 0 0 0
0 0 0 0 0 0 0 0 0 0 0 0 0 0 0 0 0 0 0 0 0 0 0 0 0 0 0 0 0 0 0 0 0 0 0 0 0 0 0 0 0 0 0
0 0 0 0 0 0 0 0 0 0 0 0 0 0 0 0 0 0 0 0 0 0 0 0 0 0 0 0 0 0 0 0 0 0 0 0 0 0 0 0 0 0 0
0 0 0 0 0 0 0 0 0 0 0 0 0 0 0 0 0 0 0 0 0 0 0 0 0 0 0 0 0 0 0 0 0 0 0 0 0 0 0 0 0 0 0
0 0 0 0 0 0 0 0 0 0 0 0 0 0 0 0 0 0 0 0 0 0 0 0 0 0 0 0 0 0 0 0 0 0 0 0 0 0 0 0 0 0 0
0 0 0 0 0 0 0 0 0 0 0 0 0 0 0 0 0 0 0 0 0 0 0 0 0 0 0 0 0 0 0 0 0 0 0 0 0 0 0 0 0 0 0
0 0 0 0 0 0 0 0 0 0 0 0 0 0 0 0 0 0 0 0 0 0 0 0 0 0 0 0 0 0 0 0 0 0 0 0 0 0 0 0 0 0 0
0 0 0 0 0 0 0 0 0 0 0 0 0 0 0 0 0 0 0 0 0 0 0 0 0 0 0 0 0 0 0 0 0 0 0 0 0 0 0 0 0 0 0
0 0 0 0 0 0 0 0 0 0 0 0 0 0 0 0 0 0 0 0 0 0 0 0 0 0 0 0 0 0 0 0 0 0 0 0 0 0 0 0 0 0 0
0 0 0 0 0 0 0 0 0 0 0 0 0 0 0 0 0 0 0 0 0 0 0 0 0 0 0 0 0 0 0 0 0 0 0 0 0 0 0 0 0 0 0
0 0 0 0 0 0 0 0 0 0 0 0 0 0 0 0 0 0 0 0 0 0 0 0 0 0 0 0 0 0 0 0 0 0 0 0 0 0 0 0 0 0 0
Wind_Speed
10 6 6 5 5 4 5 6 9 11 12 10 9 8 7 6 6 7 9 9 9 9 8 6 6 6 6 5 5 3 5 5 5 4 6 4 3 2 1 2 1 2 4
8 6 6 5 6 6 6 7 10 11 10 8 6 6 7 6 6 7 8 9 9 8 8 7 6 5 5 6 6 5 3 4 5 4 3 6 7 5 3 3 2 3 5
12 9 8 7 6 7 8 9 9 9 9 10 11 11 8 6 5 6 6 7 8 8 8 8 6 6 5 5 5 5 4 3 3 3 3 3 4 5 5 4 3 4 4
13 10 10 9 9 8 7 9 9 10 11 12 15 17 11 8 6 5 6 7 7 8 8 8 7 6 5 5 4 4 3 3 3 3 2 1 3 3 6 4 3 4 6
14 13 13 12 9 9 9 9 10 10 10 9 13 13 11 9 9 8 10 8 7 7 7 7 6 6 5 5 5 4 4 2 1 1 1 2 2 2 3 7 6 6 4
14 12 11 10 9 9 9 10 12 10 9 9 10 15 17 16 13 10 9 7 5 5 7 7 6 5 4 4 4 3 3 2 1 0 1 1 2 2 3 6 10 10 6
11 12 14 15 14 13 12 12 13 11 10 11 11 13 16 15 14 11 9 7 5 4 5 5 5 4 4 4 3 3 2 1 1 1 2 2 3 3 3 6 10 12 7
10 13 17 18 17 16 15 14 14 13 11 12 12 11 11 9 8 8 8 7 5 5 5 5 5 4 4 3 2 1 1 1 2 3 3 3 4 3 3 4 8 13 7
11 14 15 17 17 17 15 15 16 14 13 13 13 11 10 10 10 9 8 6 5 5 5 5 4 4 3 2 2 1 2 2 2 3 4 4 4 4 4 4 4 7 14
10 12 14 14 14 14 13 14 15 15 14 13 11 11 10 11 10 9 9 7 6 5 5 5 4 3 2 2 2 2 2 3 3 3 4 5 4 5 5 5 5 6 11
14 15 14 13 13 14 14 14 15 15 13 12 12 12 11 10 10 9 8 7 6 6 5 4 3 2 2 2 2 3 3 4 5 5 5 6 6 5 5 5 6 7 8
12 13 14 15 15 15 14 14 14 14 13 12 13 12 11 10 10 8 7 7 6 5 4 4 3 2 2 3 3 4 5 5 6 6 6 7 6 7 6 6 7 8 9
14 14 14 14 14 14 14 13 13 13 13 13 13 12 10 10 9 8 7 6 6 5 4 3 3 2 3 3 4 4 5 6 6 6 6 7 7 8 7 8 9 8 10
13 14 13 13 13 13 13 13 12 12 13 12 12 11 9 9 8 7 6 6 5 5 3 2 2 3 4 4 5 5 5 5 5 5 6 7 8 9 9 9 9 8 9
13 13 13 13 13 13 12 12 12 11 12 12 11 10 8 8 7 7 6 5 5 4 3 2 3 3 3 4 6 5 5 5 5 6 7 8 13 16 14 12 10 10 10
13 12 13 14 14 14 14 13 12 11 11 12 11 9 9 8 7 6 6 5 4 3 2 3 3 4 4 11 14 11 5 4 5 7 8 9 11 15 21 25 24 22 17
13 14 14 13 13 13 14 14 12 11 11 11 10 9 8 8 6 6 5 4 3 2 2 3 4 5 7 13 15 16 8 5 6 8 9 10 11 17 11 18 23 20 22
12 12 12 12 11 11 12 12 11 11 11 10 9 8 8 7 6 5 5 3 2 2 2 3 4 5 7 14 16 17 7 6 7 8 9 10 10 12 17 14 13 10 10
11 12 12 13 13 13 14 14 12 11 11 10 9 7 8 7 6 5 3 2 1 2 2 3 4 5 8 14 16 17 6 6 8 8 8 10 10 20 26 17 13 12 11
12 13 14 14 14 13 14 15 12 11 10 9 8 7 7 7 6 4 2 1 1 2 3 4 4 5 6 13 17 19 5 7 7 7 7 14 19 24 26 14 10 13 14
14 15 15 13 13 13 14 14 12 10 9 9 9 8 7 6 5 3 2 1 2 3 4 5 6 6 8 12 17 19 8 7 8 8 7 8 23 26 26 21 10 17 19
14 14 14 12 10 11 14 13 11 9 10 10 9 7 6 5 4 4 2 2 3 4 4 5 6 5 6 10 15 19 18 17 9 9 8 11 24 26 24 17 19 24 19
12 12 15 14 10 8 12 14 10 10 10 10 8 6 6 4 3 3 2 2 3 3 4 4 5 6 5 8 17 19 21 22 12 9 19 23 24 22 15 18 22 18 9
12 13 15 15 11 9 10 12 11 10 10 9 7 5 4 3 3 2 2 2 3 4 5 5 5 6 6 6 7 7 9 14 12 10 14 20 19 16 16 15 12 9 9
10 11 13 14 12 11 11 9 9 10 10 7 5 4 4 3 2 2 2 3 3 4 6 4 5 7 7 10 20 14 9 9 11 13 6 7 8 9 9 9 9 9 9
11 12 13 14 12 11 10 8 7 8 8 6 4 3 2 2 2 3 4 6 7 12 13 13 13 10 14 21 21 21 21 22 21 13 8 9 9 10 10 11 11 11 10
Wind_Direction
252 248 223 192 169 165 155 146 142 144 143 140 135 127 117 107 96 93 97 99 100 98 95 94 81 73 72 61 45 48 37 19 359 1 339 335 350 353 10 16 355 22 21
247 225 200 182 178 173 161 149 149 151 150 143 128 117 116 103 95 94 92 94 98 97 95 92 86 78 78 61 47 46 47 21 24 31 3 346 338 341 347 339 351 11 12
238 222 198 195 182 179 169 157 152 145 136 130 120 114 105 102 101 99 91 87 92 90 93 90 87 78 77 72 60 53 63 31 12 41 58 15 311 310 311 320 341 354 352
226 214 192 189 187 181 162 149 144 140 141 141 142 142 140 133 127 123 110 95 87 89 88 86 84 80 75 72 61 62 64 66 28 3 30 229 237 288 308 301 308 323 316
216 205 192 188 175 159 152 144 138 138 142 144 144 134 123 118 122 117 107 96 84 82 84 83 81 79 75 73 65 60 58 72 81 6 321 312 291 244 270 292 303 302 278
214 200 180 159 149 146 143 142 140 136 136 135 136 135 132 134 132 126 115 105 93 81 78 81 79 78 75 70 64 61 57 60 61 305 251 246 272 285 276 286 304 303 292
204 181 164 161 159 156 152 148 143 136 132 130 128 133 134 134 133 130 124 119 105 90 82 84 80 75 73 72 62 52 29 16 338 288 261 243 240 242 258 286 303 302 293
192 179 173 168 164 160 155 150 144 137 132 128 123 121 121 120 118 117 118 112 108 107 103 93 83 75 68 62 48 30 339 329 301 284 271 256 253 246 252 271 303 310 299
186 178 172 167 162 159 156 151 142 135 130 127 122 117 115 115 115 111 104 104 107 108 98 90 82 69 57 40 18 343 318 313 286 276 269 256 255 253 252 254 263 290 305
177 169 166 162 155 148 139 137 137 133 128 126 124 120 114 113 114 111 107 104 101 98 97 87 77 60 39 11 350 318 311 313 295 275 272 267 261 259 255 252 254 255 278
171 163 155 145 136 133 133 133 130 128 125 121 118 117 113 111 108 107 107 107 102 99 95 89 76 53 23 350 340 320 310 308 299 294 287 278 276 270 263 258 258 260 265
150 144 139 136 135 134 133 132 130 126 124 121 118 115 113 111 108 107 107 106 102 96 94 87 69 36 2 338 330 315 312 300 296 295 294 289 291 280 273 267 265 266 263
131 132 134 137 137 134 132 129 127 125 123 121 118 116 114 112 111 111 109 105 102 94 83 76 54 11 340 325 311 298 294 291 289 292 293 290 289 285 279 274 273 272 277
135 137 136 134 133 131 130 127 124 125 124 120 119 118 118 117 116 112 107 103 101 94 79 60 28 351 324 308 298 294 292 291 293 293 288 285 284 282 280 282 275 283 289
144 144 140 136 132 129 126 126 125 124 123 120 118 119 118 115 111 107 104 99 92 86 69 38 6 343 318 308 309 299 295 294 292 289 283 284 298 303 303 305 305 300 294
154 146 141 139 138 136 133 130 127 125 123 121 121 122 119 114 109 107 103 95 84 67 39 13 349 336 330 322 325 326 303 288 289 294 291 290 296 299 311 311 307 303 302
157 153 150 147 142 140 138 135 131 125 121 121 123 123 119 113 109 106 98 88 76 46 9 347 337 323 315 325 328 324 320 297 289 290 294 301 303 311 296 295 300 303 304
154 148 143 136 131 128 127 124 124 123 122 122 122 121 117 112 107 99 89 77 63 21 345 327 323 317 317 330 327 323 326 295 284 283 285 289 293 296 303 302 307 301 297
146 142 138 135 132 133 133 127 123 123 123 124 123 121 118 115 108 96 85 72 34 353 325 315 319 316 314 327 325 327 305 291 288 286 289 299 298 303 312 316 309 305 302
129 129 128 128 130 134 134 129 129 128 128 126 119 113 113 113 108 102 90 58 6 330 324 320 315 309 304 317 326 325 300 298 298 293 286 304 310 312 318 319 312 312 309
123 125 127 130 135 137 133 128 127 125 122 116 110 106 105 108 108 99 80 38 0 345 334 319 311 304 307 320 325 323 320 306 308 310 305 299 314 318 322 324 317 307 314
119 123 121 120 124 131 128 122 119 117 114 111 107 103 99 97 97 87 62 27 6 345 330 317 312 299 299 314 318 323 323 322 316 311 307 308 318 324 326 324 315 318 326
114 116 119 115 108 112 122 120 119 119 113 108 105 104 97 84 81 74 37 6 355 335 315 306 305 306 302 307 318 320 322 324 321 309 314 319 324 327 324 316 320 326 319
113 118 117 113 104 96 102 114 118 116 112 110 108 104 97 80 51 39 23 352 326 315 308 307 307 306 304 300 297 297 310 319 318 311 314 323 324 321 317 318 319 314 307
111 113 114 111 106 103 100 105 112 112 108 106 103 95 84 70 33 6 330 313 275 284 308 298 296 310 309 311 322 327 321 320 317 324 323 320 319 318 317 315 313 313 314
108 106 106 107 106 104 99 97 103 110 111 106 98 88 74 46 23 348 326 320 319 322 323 323 322 316 316 321 327 328 328 330 330 333 324 318 316 316 316 316 315 314 312